This is the latest recevied weather packets stored in our database for station/object KE8WAY. If no packets are shown the sender has not sent any weather packets the latest 10 day(s).
| Time | Temp. | Humidity | Pressure | Rain* | Wind** | Luminosity | Snow |
|---|---|---|---|---|---|---|---|
| 1777776584 | 6.11° C | 69% | 1016.1 hPa | 0 mm | - | 0 W/m² | - |
| 1777776280 | 6.11° C | 67% | 1016 hPa | 0 mm | - | 0 W/m² | - |
| 1777775977 | 6.11° C | 68% | 1016.3 hPa | 0 mm | - | 0 W/m² | - |
| 1777775674 | 6.11° C | 72% | 1016.2 hPa | 0 mm | - | 0 W/m² | - |
| 1777775371 | 6.11° C | 71% | 1016.1 hPa | 0 mm | - | 0 W/m² | - |
| 1777775066 | 6.11° C | 68% | 1016.2 hPa | 0 mm | - | 0 W/m² | - |
| 1777774762 | 6.67° C | 70% | 1016.4 hPa | 0 mm | - | 0 W/m² | - |
| 1777774458 | 6.67° C | 69% | 1016.2 hPa | 0 mm | - | 0 W/m² | - |
| 1777774156 | 6.67° C | 68% | 1016 hPa | 0 mm | - | 0 W/m² | - |
| 1777773854 | 6.67° C | 65% | 1016.2 hPa | 0 mm | - | 0 W/m² | - |
| 1777773550 | 6.67° C | 62% | 1016 hPa | 0 mm | - | 0 W/m² | - |
| 1777773247 | 6.67° C | 60% | 1015.9 hPa | 0 mm | - | 0 W/m² | - |
| 1777772943 | 6.67° C | 67% | 1016 hPa | 0 mm | - | 0 W/m² | - |
| 1777772640 | 6.67° C | 65% | 1016 hPa | 0 mm | - | 0 W/m² | - |
| 1777772338 | 6.67° C | 67% | 1016 hPa | 0 mm | - | 0 W/m² | - |
| 1777772035 | 6.67° C | 69% | 1015.9 hPa | 0 mm | - | 0 W/m² | - |
| 1777771732 | 6.67° C | 70% | 1016 hPa | 0 mm | - | 0 W/m² | - |
| 1777771430 | 6.67° C | 69% | 1016.1 hPa | 0 mm | - | 0 W/m² | - |
| 1777771126 | 6.67° C | 66% | 1015.9 hPa | 0 mm | - | 0 W/m² | - |
| 1777770823 | 6.67° C | 63% | 1016 hPa | 0 mm | - | 0 W/m² | - |
| 1777770519 | 6.67° C | 64% | 1016.2 hPa | 0 mm | - | 0 W/m² | - |
| 1777770217 | 7.22° C | 66% | 1015.8 hPa | 0 mm | - | 0 W/m² | - |
| 1777769913 | 6.67° C | 66% | 1015.8 hPa | 0 mm | - | 0 W/m² | - |
| 1777769611 | 7.22° C | 66% | 1015.9 hPa | 0 mm | - | 0 W/m² | - |
| 1777769307 | 7.22° C | 62% | 1016 hPa | 0 mm | - | 0 W/m² | - |
* Rain latest hour (hover to see other rain measurements)
** Current wind speed in m/s (hover to see current wind gust speed)